Malmstrom AFB, MT

2:54 PM MST on November 18, 2017 (GMT -0700)
Malmstrom AFB

Weather History for KGFA - August, 2014

Change the Weather History Date:

Wednesday, August 20, 2014

  Actual Average (KGTF) Record (KGTF)
Temperature  
Mean Temperature 64 °F -  
Max Temperature 77 °F 79 °F 99 °F (1931)
Min Temperature 53 °F 52 °F 39 °F (1916)
Growing Degree Days 14 (Base 50)    
Moisture  
Dew Point 50 °F    
Average Humidity 63    
Maximum Humidity 94    
Minimum Humidity 28    
Precipitation  
Precipitation 0.17 in - - ()
Sea Level Pressure  
Sea Level Pressure 29.83 in    
Wind  
Wind Speed 7 mph (West)    
Max Wind Speed 26 mph    
Max Gust Speed 36 mph    
Visibility 10 miles    
Events Rain , Thunderstorm    
Averages and records for this station are not official NWS values.
T = Trace of Precipitation, MM = Missing Value Source: NWS Daily Summary

Daily Weather History Graph

Daily Weather History Graph

Search for Another Location

Airport or City:

Trip Planner

Search our weather history database for the weather conditions in past years. The results will help you decide how hot, cold, wet, or windy it might be!

Date:

Astronomy

Aug. 20, 2014 Rise Set
Actual Time 6:27 AM MDT 8:27 PM MDT
Civil Twilight 5:54 AM MDT 9:00 PM MDT
Nautical Twilight 5:13 AM MDT 9:41 PM MDT
Astronomical Twilight 4:27 AM MDT 10:26 PM MDT
Moon 2:02 AM MDT (8/20) 5:22 PM MDT (8/20)
Length of Visible Light 15h 06m
Length of Day
14h 00m
Waning Crescent, 20% of the Moon is Illuminated
Aug 20
Waning Crescent
Aug 25
New
Sep 2
First Quarter
Sep 8
Full
Sep 15
Last Quarter

Hourly Weather History & Observations

Time (MDT) Temp. Dew Point Humidity Pressure Visibility Wind Dir Wind Speed Gust Speed Precip Events Conditions
12:23 AM 66.2 °F 48.2 °F 52% 29.79 in 10.0 mi Variable 2.3 mph - N/A Rain Light Rain
12:55 AM 62.6 °F 51.8 °F 68% 29.79 in 10.0 mi East 5.8 mph - N/A   Mostly Cloudy
12:56 AM 63.1 °F 50.7 °F 64% 29.71 in 10.0 mi East 5.8 mph - N/A   Mostly Cloudy
1:24 AM 60.8 °F 51.8 °F 72% 29.79 in 10.0 mi South 5.8 mph - N/A Rain Light Rain Showers
1:41 AM 62.6 °F 50.0 °F 63% 29.79 in 10.0 mi South 3.5 mph - N/A   Mostly Cloudy
1:56 AM 60.4 °F 49.8 °F 68% 29.72 in 10.0 mi SSW 3.5 mph - N/A   Partly Cloudy
2:16 AM 60.8 °F 50.0 °F 68% 29.79 in 10.0 mi South 4.6 mph - N/A Rain Light Rain Showers
2:31 AM 59.0 °F 50.0 °F 72% 29.79 in 10.0 mi SSW 3.5 mph - N/A   Scattered Clouds
2:56 AM 62.4 °F 50.0 °F 64% 29.70 in 10.0 mi NW 3.5 mph - N/A   Clear
3:56 AM 56.7 °F 48.4 °F 74% 29.72 in 10.0 mi Variable 1.2 mph - N/A   Clear
4:57 AM 53.1 °F 47.3 °F 81% 29.74 in 10.0 mi SSE 5.8 mph - N/A   Clear
5:56 AM 55.4 °F 47.5 °F 75% 29.75 in 10.0 mi SW 5.8 mph - N/A   Scattered Clouds
6:56 AM 58.1 °F 50.0 °F 74% 29.78 in 10.0 mi WSW 4.6 mph - N/A   Mostly Cloudy
7:56 AM 57.2 °F 51.8 °F 82% 29.77 in 10.0 mi ESE 4.6 mph - N/A   Partly Cloudy
8:56 AM 64.0 °F 50.7 °F 62% 29.78 in 10.0 mi SSW 5.8 mph - N/A   Partly Cloudy
9:56 AM 69.1 °F 49.1 °F 49% 29.79 in 10.0 mi SW 5.8 mph - N/A   Partly Cloudy
10:56 AM 71.6 °F 46.8 °F 41% 29.79 in 10.0 mi West 5.8 mph - N/A   Clear
11:56 AM 73.4 °F 45.5 °F 37% 29.80 in 10.0 mi Variable 4.6 mph - N/A   Clear
12:56 PM 76.6 °F 44.2 °F 32% 29.78 in 9.0 mi North 6.9 mph 16.1 mph N/A   Partly Cloudy
1:56 PM 76.8 °F 41.4 °F 28% 29.78 in 10.0 mi SW 5.8 mph - N/A   Scattered Clouds
2:13 PM 75.2 °F 46.4 °F 36% 29.85 in 10.0 mi NW 18.4 mph 24.2 mph N/A Rain Light Rain
2:22 PM 71.6 °F 50.0 °F 46% 29.88 in 10.0 mi West 13.8 mph 21.9 mph N/A Rain Light Rain Showers
2:56 PM 65.3 °F 52.9 °F 64% 29.82 in 10.0 mi North 4.6 mph - 0.03 in Rain Light Rain Showers
3:08 PM 68.0 °F 50.0 °F 52% 29.84 in 10.0 mi North 6.9 mph - N/A   Mostly Cloudy
3:56 PM 72.0 °F 45.3 °F 38% 29.80 in 10.0 mi West 6.9 mph - N/A   Partly Cloudy
4:56 PM 73.0 °F 46.4 °F 39% 29.81 in 10.0 mi SW 6.9 mph - N/A   Mostly Cloudy
5:56 PM 73.2 °F 48.2 °F 41% 29.82 in 10.0 mi SSW 6.9 mph - N/A   Scattered Clouds
6:56 PM 70.7 °F 49.5 °F 47% 29.83 in 10.0 mi SSW 11.5 mph - N/A   Mostly Cloudy
7:55 PM 69.8 °F 48.2 °F 46% 29.87 in 10.0 mi West 9.2 mph - N/A Thunderstorm Thunderstorm
7:56 PM 69.1 °F 48.2 °F 47% 29.84 in 10.0 mi West 11.5 mph - N/A Thunderstorm Thunderstorm
8:02 PM 69.8 °F 51.8 °F 53% 29.89 in 10.0 mi NNW 19.6 mph 29.9 mph N/A Thunderstorm Thunderstorm
8:05 PM 68.0 °F 53.6 °F 60% 29.90 in 10.0 mi North 26.5 mph 35.7 mph N/A Rain , Thunderstorm Light Thunderstorms and Rain
8:09 PM 66.2 °F 53.6 °F 64% 29.90 in 10.0 mi NNW 17.3 mph 35.7 mph N/A Rain Light Rain
8:15 PM 62.6 °F 55.4 °F 77% 29.91 in 5.0 mi North 24.2 mph 32.2 mph N/A Rain , Thunderstorm Heavy Thunderstorms and Rain
8:31 PM 60.8 °F 55.4 °F 82% 29.90 in 10.0 mi NNE 18.4 mph 26.5 mph N/A Rain Heavy Rain
8:34 PM 60.8 °F 55.4 °F 82% 29.91 in 10.0 mi NE 16.1 mph 26.5 mph N/A Rain Heavy Rain
8:56 PM 59.5 °F 54.0 °F 82% 29.91 in 10.0 mi NNE 13.8 mph 25.3 mph 0.14 in   Mostly Cloudy
9:56 PM 57.0 °F 55.4 °F 94% 29.95 in 10.0 mi NNE 10.4 mph - N/A   Mostly Cloudy
10:25 PM 57.2 °F 55.4 °F 94% 29.98 in 10.0 mi NE 8.1 mph - N/A   Mostly Cloudy
10:56 PM 56.8 °F 54.9 °F 93% 29.96 in 10.0 mi NE 3.5 mph - N/A   Mostly Cloudy
11:14 PM 57.2 °F 55.4 °F 94% 30.00 in 10.0 mi South 2.3 mph - N/A   Mostly Cloudy
11:56 PM 57.4 °F 54.0 °F 88% 29.97 in 10.0 mi West 9.2 mph - N/A   Mostly Cloudy